User: anonymous   Login
Location: Scultetus-Sternwarte G�rlitz
(51.1356°N, 14.9514°E)
Time: 09:37:04
(UTC+01:00)
Language:

Iridium 3 - Orbit

View from above orbital plane
View from above orbital plane
View from above satellite
View from above satellite

Ground track
Ground track

The orbit data is extracted from the following two-line orbital elements,

1 25431U 98048A   14329.44945815  .00000743  00000-0  25808-3 0  9814
2 25431 086.3957 286.3828 0002243 105.7900 011.2923 14.34213188851631
Epoch (UTC): 25 November 2014 10:47:13
Eccentricity: 0.0002243
inclination: 86.3957°
perigee height: 776 km
apogee height: 779 km
right ascension of ascending node: 286.3828°
argument of perigee: 105.7900°
revolutions per day: 14.34213188
mean anomaly at epoch: 11.2923°
orbit number at epoch: 85163

The dashed part of the orbit path shows where the satellite is in the earth's shadow,  

DLR